User: anonymous   Login
Location: Conjunto Santa Maria
(19.9513°S, 43.9599°W)
Time: 07:17:55
(UTC+00:00)
Language:

Cosmos 1953 Rocket - Orbit

View from above orbital plane
View from above orbital plane
View from above satellite
View from above satellite

Ground track
Ground track

The orbit data is extracted from the following two-line orbital elements,

1 19211U 88050B   21108.70116087  .00000085  00000-0  74064-5 0  9996
2 19211  82.5259 331.4814 0021906 174.8369 185.3076 14.83106570753434
Epoch (UTC): 18 April 2021 16:49:40
Eccentricity: 0.0021906
inclination: 82.5259°
perigee height: 604 km
apogee height: 635 km
right ascension of ascending node: 331.4814°
argument of perigee: 174.8369°
revolutions per day: 14.83106570
mean anomaly at epoch: 185.3076°
orbit number at epoch: 75343

The dashed part of the orbit path shows where the satellite is in the earth's shadow,  

DLR